Content
SEND FEEDBACK

Daily
Averages
Monthly
Summary
United States of America

BOILING SPRING LAKES, NORTH CAROLINA


Home > North America > United States > North Carolina
Elevation: 20 feet     Latitude: 34 00N     Longitude: 078 01W

WEATHER
 
SELECT A DAY
Number of Records: 136,238;   Date Range: 8/21/01 - 7/23/14
 
SHARE

PRINT THIS DATA

[ ← Previous Day ]
WEATHER ALMANAC - NOVEMBER 5, 2013
[ Next Day → ]
[ °C ]   °F
Weather ElementAverageHighLow
Temperature58.9 °F72.5 °F (2:15 pm)45.3 °F (1:55 am)
Dewpoint51.9 °F59.7 °F (2:35 pm)40.5 °F (12:35 am)
Humidity78.2 %94 % (5:55 am)62 % (12:15 pm)
Barometer30.39 in30.44 in (12:35 am)30.35 in (2:15 pm)
Wind Speed9.7 mph15 mph (9:35 am)
Wind Gust21.9 mph (12:55 pm)
Weather ElementAverage
Visibility9.8 mi
Wind DirectionNNE (30.6 °)

Weather ElementTotal
Precipitation---
Heating Degree Days6.1 (Base 65)
Growing Degree Days8.9 (Base 50)
Averaged from 71 records on November 5, 2013
WEATHER CONDITIONS BREAKOUT
WIND DIRECTION BREAKOUT
WEATHER BY HOUR - NOVEMBER 5, 2013
[ °C ]   °F
Local TimeTemperatureDewpointHumidityBarometerVisibilityWind DirectionWind SpeedGust SpeedPrecipitationEventsConditions
12:35 AM46.9 °F40.5 °F78 %30.44 in10.0 miNNE (20°)12.7 mph17.3 mphOvercast
12:55 AM46.9 °F40.6 °F79 %30.44 in10.0 miNNE (20°)11.5 mphOvercast
1:15 AM46.8 °F40.8 °F80 %30.43 in10.0 miNNE (20°)10.4 mph17.3 mphOvercast
1:35 AM46.0 °F41.0 °F83 %30.42 in10.0 miNNE (20°)9.2 mphScattered Clouds
1:55 AM45.3 °F41.0 °F85 %30.41 in10.0 miNorth (10°)9.2 mphClear
2:15 AM45.5 °F41.4 °F85 %30.41 in10.0 miNorth (10°)12.7 mphScattered Clouds
2:35 AM45.3 °F41.4 °F86 %30.40 in10.0 miNorth (10°)9.2 mphScattered Clouds
2:55 AM45.5 °F41.7 °F87 %30.40 in10.0 miNorth (10°)11.5 mphScattered Clouds
3:15 AM46.0 °F42.1 °F86 %30.39 in10.0 miNNE (20°)10.4 mphMostly Cloudy
3:35 AM46.4 °F42.4 °F86 %30.39 in10.0 miNorth (10°)8.1 mphOvercast
3:55 AM47.7 °F43.3 °F85 %30.39 in10.0 miNorth (10°)8.1 mphOvercast
4:15 AM48.4 °F43.9 °F84 %30.39 in10.0 miNNE (20°)10.4 mphOvercast
4:35 AM49.3 °F44.6 °F84 %30.39 in10.0 miNNE (20°)9.2 mphOvercast
4:55 AM49.5 °F44.6 °F83 %30.40 in10.0 miNNE (20°)8.1 mphOvercast
5:15 AM50.2 °F45.9 °F85 %30.40 in10.0 miNNE (30°)9.2 mphOvercast
5:35 AM50.0 °F47.8 °F92 %30.40 in4.0 miNNE (20°)10.4 mphDrizzle
5:55 AM50.0 °F48.4 °F94 %30.40 in5.0 miNorth (10°)12.7 mphLight Drizzle
6:15 AM50.0 °F48.4 °F94 %30.40 in10.0 miNNE (20°)10.4 mph18.4 mphOvercast
6:35 AM50.0 °F48.2 °F94 %30.40 in10.0 miNorth (10°)10.4 mph17.3 mphOvercast
6:55 AM50.2 °F48.4 °F94 %30.40 in10.0 miNNE (20°)10.4 mphOvercast
7:15 AM50.4 °F48.4 °F93 %30.41 in10.0 miNorth (10°)11.5 mph17.3 mphOvercast
7:35 AM51.3 °F49.1 °F92 %30.41 in10.0 miNorth (10°)10.4 mph17.3 mphOvercast
7:55 AM52.0 °F49.6 °F92 %30.42 in10.0 miNorth (10°)12.7 mphOvercast
8:15 AM52.2 °F49.5 °F91 %30.42 in10.0 miNorth (10°)12.7 mphOvercast
8:35 AM53.2 °F50.0 °F89 %30.42 in10.0 miNNE (20°)12.7 mph16.1 mphOvercast
8:55 AM54.0 °F50.0 °F86 %30.42 in10.0 miNorth (10°)11.5 mph17.3 mphOvercast
9:15 AM54.7 °F50.5 °F86 %30.42 in10.0 miNNE (20°)10.4 mphOvercast
9:35 AM54.9 °F50.9 °F86 %30.43 in10.0 miNNE (20°)15.0 mph20.7 mphOvercast
9:55 AM55.6 °F50.9 °F84 %30.42 in10.0 miNNE (20°)9.2 mphOvercast
10:15 AM57.6 °F51.4 °F80 %30.43 in10.0 miNNE (20°)11.5 mph17.3 mphOvercast
10:35 AM59.2 °F51.8 °F77 %30.43 in10.0 miNorth (10°)13.8 mph19.6 mphOvercast
10:55 AM61.7 °F52.9 °F73 %30.42 in10.0 miNorth (10°)13.8 mph19.6 mphMostly Cloudy
11:15 AM63.5 °F53.6 °F70 %30.41 in10.0 miNNE (30°)10.4 mph18.4 mphScattered Clouds
11:35 AM65.5 °F54.5 °F68 %30.40 in10.0 miNNE (20°)12.7 mph17.3 mphScattered Clouds
11:55 AM68.9 °F56.3 °F64 %30.39 in10.0 miNNE (30°)10.4 mph17.3 mphScattered Clouds
12:15 PM70.7 °F57.2 °F62 %30.38 in10.0 miNE (40°)10.4 mph18.4 mphMostly Cloudy
12:35 PM70.5 °F57.6 °F63 %30.37 in10.0 miNE (40°)11.5 mph18.4 mphScattered Clouds
12:55 PM70.3 °F57.6 °F64 %30.36 in10.0 miENE (60°)9.2 mph21.9 mphClear
1:15 PM71.1 °F57.7 °F63 %30.36 in10.0 miENE (60°)10.4 mph19.6 mphClear
1:35 PM71.8 °F58.3 °F62 %30.36 in10.0 miNE (50°)11.5 mph18.4 mphClear
1:55 PM72.0 °F58.6 °F63 %30.36 in10.0 miNE (50°)9.2 mph18.4 mphScattered Clouds
2:15 PM72.5 °F59.2 °F63 %30.35 in10.0 miENE (60°)6.9 mphClear
2:35 PM72.5 °F59.7 °F64 %30.36 in10.0 miNE (50°)13.8 mph18.4 mphClear
2:55 PM72.5 °F59.7 °F64 %30.36 in10.0 miENE (60°)9.2 mph16.1 mphScattered Clouds
3:15 PM71.1 °F59.2 °F66 %30.35 in10.0 miNE (50°)9.2 mph18.4 mphScattered Clouds
3:35 PM70.7 °F58.3 °F65 %30.35 in10.0 miNE (50°)8.1 mph17.3 mphClear
3:55 PM70.5 °F58.1 °F65 %30.36 in10.0 miNE (50°)9.2 mphClear
4:15 PM69.8 °F58.1 °F66 %30.36 in10.0 miNE (50°)8.1 mph17.3 mphClear
4:35 PM68.9 °F58.6 °F70 %30.36 in10.0 miNE (40°)8.1 mphScattered Clouds
4:55 PM68.0 °F58.3 °F71 %30.36 in10.0 miENE (60°)8.1 mphClear
5:15 PM67.1 °F58.6 °F74 %30.37 in10.0 miENE (60°)9.2 mph17.3 mphClear
5:35 PM66.2 °F57.2 °F73 %30.37 in10.0 miENE (60°)10.4 mphClear
5:55 PM66.0 °F57.4 °F74 %30.37 in10.0 miNE (50°)9.2 mphClear
6:15 PM66.2 °F57.4 °F73 %30.37 in10.0 miENE (60°)9.2 mphClear
6:35 PM66.2 °F57.2 °F73 %30.38 in10.0 miNE (40°)10.4 mph16.1 mphScattered Clouds
6:55 PM65.5 °F56.3 °F72 %30.38 in10.0 miNE (50°)10.4 mph16.1 mphScattered Clouds
7:15 PM65.3 °F56.8 °F74 %30.38 in10.0 miNE (50°)10.4 mphClear
7:35 PM65.1 °F57.0 °F75 %30.38 in10.0 miENE (60°)10.4 mph16.1 mphClear
7:55 PM64.2 °F56.3 °F75 %30.38 in10.0 miNE (40°)8.1 mph16.1 mphClear
8:15 PM63.5 °F56.5 °F78 %30.39 in10.0 miNE (40°)9.2 mphClear
8:35 PM62.6 °F56.5 °F80 %30.39 in10.0 miNNE (30°)6.9 mphClear
8:55 PM62.2 °F56.1 °F80 %30.38 in10.0 miNNE (30°)9.2 mphClear
9:15 PM61.9 °F55.6 °F80 %30.39 in10.0 miNNE (30°)6.9 mphClear
9:35 PM61.9 °F55.2 °F79 %30.39 in10.0 miNE (40°)8.1 mphClear
9:55 PM60.3 °F54.0 °F80 %30.39 in10.0 miNNE (20°)5.8 mphClear
10:15 PM59.5 °F53.2 °F80 %30.38 in10.0 miNNE (30°)5.8 mphClear
10:35 PM59.0 °F52.5 °F79 %30.38 in10.0 miNE (40°)4.6 mphClear
10:55 PM58.1 °F52.0 °F80 %30.37 in10.0 miNNE (20°)4.6 mphScattered Clouds
11:15 PM57.2 °F51.8 °F82 %30.37 in10.0 miNorth (10°)4.6 mphScattered Clouds
11:35 PM56.5 °F51.3 °F83 %30.37 in10.0 miNNE (30°)5.8 mphClear
11:55 PM56.3 °F51.3 °F83 %30.37 in10.0 miNNE (30°)4.6 mphClear
Hourly data recorded from KSUT, located miles away from Boiling Spring Lakes, North Carolina







STORIES FROM OUR PARTNERS